Time,TemperatureF,DewpointF,PressureIn,WindDirection,WindDirectionDegrees,WindSpeedMPH,WindSpeedGustMPH,Humidity,HourlyPrecipIn,Conditions,Clouds,dailyrainin,SoftwareType,DateUTC
2013-04-01 03:53:00,50.4,49.3,29.87,N/A,-737280,0.0,-999.0,96,0.00,,,0.01,Wunderground v.1.15,2013-04-01 08:53:00,
2013-04-01 03:58:00,50.4,49.3,29.87,N/A,-737280,0.0,-999.0,96,0.00,,,0.01,Wunderground v.1.15,2013-04-01 08:58:00,
2013-04-01 04:03:00,50.4,49.3,29.87,N/A,-737280,0.0,-999.0,96,0.00,,,0.01,Wunderground v.1.15,2013-04-01 09:03:00,
2013-04-01 04:08:00,50.4,49.3,29.87,N/A,-737280,0.0,-999.0,96,0.00,,,0.01,Wunderground v.1.15,2013-04-01 09:08:00,
2013-04-01 04:13:00,50.4,49.3,29.87,N/A,-737280,0.0,-999.0,96,0.00,,,0.01,Wunderground v.1.15,2013-04-01 09:13:00,
2013-04-01 04:18:00,50.8,49.7,29.89,N/A,-737280,0.0,-999.0,96,0.00,,,0.01,Wunderground v.1.15,2013-04-01 09:18:00,
2013-04-01 04:23:00,50.8,49.7,29.89,N/A,-737280,0.0,-999.0,96,0.00,,,0.01,Wunderground v.1.15,2013-04-01 09:23:00,
2013-04-01 04:28:00,50.8,49.7,29.89,N/A,-737280,0.0,-999.0,96,0.00,,,0.01,Wunderground v.1.15,2013-04-01 09:28:00,
2013-04-01 04:33:00,50.8,49.7,29.89,N/A,-737280,0.0,-999.0,96,0.00,,,0.01,Wunderground v.1.15,2013-04-01 09:33:00,
2013-04-01 04:38:00,50.8,49.7,29.89,N/A,-737280,0.0,-999.0,96,0.00,,,0.01,Wunderground v.1.15,2013-04-01 09:38:00,
2013-04-01 04:43:00,50.8,49.7,29.89,N/A,-737280,0.0,-999.0,96,0.00,,,0.01,Wunderground v.1.15,2013-04-01 09:43:00,
2013-04-01 04:48:00,51.5,50.4,29.90,N/A,-737280,0.0,-999.0,96,0.00,,,0.01,Wunderground v.1.15,2013-04-01 09:48:00,
2013-04-01 04:53:00,51.5,50.4,29.90,N/A,-737280,0.0,-999.0,96,0.00,,,0.01,Wunderground v.1.15,2013-04-01 09:53:00,
2013-04-01 04:58:00,51.5,50.4,29.90,N/A,-737280,0.0,-999.0,96,0.00,,,0.01,Wunderground v.1.15,2013-04-01 09:58:00,
2013-04-01 05:03:00,51.5,50.4,29.90,N/A,-737280,0.0,-999.0,96,0.00,,,0.01,Wunderground v.1.15,2013-04-01 10:03:00,
2013-04-01 05:08:00,51.5,50.4,29.90,N/A,-737280,0.0,-999.0,96,0.00,,,0.01,Wunderground v.1.15,2013-04-01 10:08:00,
2013-04-01 05:13:00,51.5,50.4,29.90,N/A,-737280,0.0,-999.0,96,0.00,,,0.01,Wunderground v.1.15,2013-04-01 10:13:00,
2013-04-01 05:18:00,53.4,52.3,29.92,NE,45,1.0,-999.0,96,0.00,,,0.01,Wunderground v.1.15,2013-04-01 10:18:00,
2013-04-01 05:23:00,53.4,52.3,29.92,NE,45,1.0,-999.0,96,0.00,,,0.01,Wunderground v.1.15,2013-04-01 10:23:00,
2013-04-01 05:28:00,53.4,52.3,29.92,NE,45,1.0,-999.0,96,0.00,,,0.01,Wunderground v.1.15,2013-04-01 10:28:00,
2013-04-01 05:33:00,53.4,52.3,29.92,NE,45,1.0,-999.0,96,0.00,,,0.01,Wunderground v.1.15,2013-04-01 10:33:00,
2013-04-01 05:38:00,53.4,52.3,29.92,NE,45,1.0,-999.0,96,0.00,,,0.01,Wunderground v.1.15,2013-04-01 10:38:00,
2013-04-01 05:43:00,53.4,52.3,29.92,NE,45,1.0,-999.0,96,0.00,,,0.01,Wunderground v.1.15,2013-04-01 10:43:00,
2013-04-01 05:48:00,54.2,53.1,29.93,NE,45,0.0,-999.0,96,0.00,,,0.01,Wunderground v.1.15,2013-04-01 10:48:00,
2013-04-01 05:53:00,54.2,53.1,29.93,NE,45,0.0,-999.0,96,0.00,,,0.01,Wunderground v.1.15,2013-04-01 10:53:00,
2013-04-01 05:58:00,54.2,53.1,29.93,NE,45,0.0,-999.0,96,0.00,,,0.01,Wunderground v.1.15,2013-04-01 10:58:00,
2013-04-01 06:03:00,54.2,53.1,29.93,NE,45,0.0,-999.0,96,0.00,,,0.01,Wunderground v.1.15,2013-04-01 11:03:00,
2013-04-01 06:08:00,54.2,53.1,29.93,NE,45,0.0,-999.0,96,0.00,,,0.01,Wunderground v.1.15,2013-04-01 11:08:00,
2013-04-01 06:13:00,54.2,53.1,29.93,NE,45,0.0,-999.0,96,0.00,,,0.01,Wunderground v.1.15,2013-04-01 11:13:00,
2013-04-01 06:18:00,54.4,53.6,29.96,NE,45,0.0,-999.0,97,0.00,,,0.01,Wunderground v.1.15,2013-04-01 11:18:00,
2013-04-01 06:23:00,54.4,53.6,29.96,NE,45,0.0,-999.0,97,0.00,,,0.01,Wunderground v.1.15,2013-04-01 11:23:00,
2013-04-01 06:28:00,54.4,53.6,29.96,NE,45,0.0,-999.0,97,0.00,,,0.01,Wunderground v.1.15,2013-04-01 11:28:00,
2013-04-01 06:33:00,54.4,53.6,29.96,NE,45,0.0,-999.0,97,0.00,,,0.01,Wunderground v.1.15,2013-04-01 11:33:00,
2013-04-01 06:38:00,54.4,53.6,29.96,NE,45,0.0,-999.0,97,0.00,,,0.01,Wunderground v.1.15,2013-04-01 11:38:00,
2013-04-01 06:43:00,54.4,53.6,29.96,NE,45,0.0,-999.0,97,0.00,,,0.01,Wunderground v.1.15,2013-04-01 11:43:00,
2013-04-01 06:48:00,55.5,54.7,29.96,NE,45,0.0,-999.0,97,0.00,,,0.01,Wunderground v.1.15,2013-04-01 11:48:00,
2013-04-01 06:53:00,55.5,54.7,29.96,NE,45,0.0,-999.0,97,0.00,,,0.01,Wunderground v.1.15,2013-04-01 11:53:00,
2013-04-01 06:58:00,55.5,54.7,29.96,NE,45,0.0,-999.0,97,0.00,,,0.01,Wunderground v.1.15,2013-04-01 11:58:00,
2013-04-01 07:03:00,55.5,54.7,29.96,NE,45,0.0,-999.0,97,0.00,,,0.01,Wunderground v.1.15,2013-04-01 12:03:00,
2013-04-01 07:08:00,55.5,54.7,29.96,NE,45,0.0,-999.0,97,0.00,,,0.01,Wunderground v.1.15,2013-04-01 12:08:00,
2013-04-01 07:13:00,55.5,54.7,29.96,NE,45,0.0,-999.0,97,0.00,,,0.01,Wunderground v.1.15,2013-04-01 12:13:00,
2013-04-01 07:18:00,56.6,55.8,29.96,NE,45,0.0,-999.0,97,0.00,,,0.01,Wunderground v.1.15,2013-04-01 12:18:00,
2013-04-01 07:23:00,56.6,55.8,29.96,NE,45,0.0,-999.0,97,0.00,,,0.01,Wunderground v.1.15,2013-04-01 12:23:00,
2013-04-01 07:28:00,56.6,55.8,29.96,NE,45,0.0,-999.0,97,0.00,,,0.01,Wunderground v.1.15,2013-04-01 12:28:00,
2013-04-01 07:33:00,56.6,55.8,29.96,NE,45,0.0,-999.0,97,0.00,,,0.01,Wunderground v.1.15,2013-04-01 12:33:00,
2013-04-01 07:38:00,56.6,55.8,29.96,NE,45,0.0,-999.0,97,0.00,,,0.01,Wunderground v.1.15,2013-04-01 12:38:00,
2013-04-01 07:43:00,56.6,55.8,29.96,NE,45,0.0,-999.0,97,0.00,,,0.01,Wunderground v.1.15,2013-04-01 12:43:00,
2013-04-01 07:48:00,56.7,55.9,29.97,NE,45,0.0,-999.0,97,0.00,,,0.01,Wunderground v.1.15,2013-04-01 12:48:00,
2013-04-01 07:53:00,56.7,55.9,29.97,NE,45,0.0,-999.0,97,0.00,,,0.01,Wunderground v.1.15,2013-04-01 12:53:00,
2013-04-01 07:58:00,56.7,55.9,29.97,NE,45,0.0,-999.0,97,0.00,,,0.01,Wunderground v.1.15,2013-04-01 12:58:00,
2013-04-01 08:03:00,56.7,55.9,29.97,NE,45,0.0,-999.0,97,0.00,,,0.01,Wunderground v.1.15,2013-04-01 13:03:00,
2013-04-01 08:08:00,56.7,55.9,29.97,NE,45,0.0,-999.0,97,0.00,,,0.01,Wunderground v.1.15,2013-04-01 13:08:00,
2013-04-01 08:13:00,56.7,55.9,29.97,NE,45,0.0,-999.0,97,0.00,,,0.01,Wunderground v.1.15,2013-04-01 13:13:00,
2013-04-01 08:18:00,58.3,57.5,29.98,NE,45,0.0,-999.0,97,0.00,,,0.01,Wunderground v.1.15,2013-04-01 13:18:00,
2013-04-01 08:23:00,58.3,57.5,29.98,NE,45,0.0,-999.0,97,0.00,,,0.01,Wunderground v.1.15,2013-04-01 13:23:00,
2013-04-01 08:28:00,58.3,57.5,29.98,NE,45,0.0,-999.0,97,0.00,,,0.01,Wunderground v.1.15,2013-04-01 13:28:00,
2013-04-01 08:33:00,58.3,57.5,29.98,NE,45,0.0,-999.0,97,0.00,,,0.01,Wunderground v.1.15,2013-04-01 13:33:00,
2013-04-01 08:38:00,58.3,57.5,29.98,NE,45,0.0,-999.0,97,0.00,,,0.01,Wunderground v.1.15,2013-04-01 13:38:00,
2013-04-01 08:43:00,58.3,57.5,29.98,NE,45,0.0,-999.0,97,0.00,,,0.01,Wunderground v.1.15,2013-04-01 13:43:00,
2013-04-01 08:48:00,59.5,58.6,29.99,WNW,293,1.0,-999.0,97,0.00,,,0.01,Wunderground v.1.15,2013-04-01 13:48:00,
2013-04-01 08:53:00,59.5,58.6,29.99,WNW,293,1.0,-999.0,97,0.00,,,0.01,Wunderground v.1.15,2013-04-01 13:53:00,
2013-04-01 08:58:00,59.5,58.6,29.99,WNW,293,1.0,-999.0,97,0.00,,,0.01,Wunderground v.1.15,2013-04-01 13:58:00,
2013-04-01 09:03:00,59.5,58.6,29.99,WNW,293,1.0,-999.0,97,0.00,,,0.01,Wunderground v.1.15,2013-04-01 14:03:00,
2013-04-01 09:08:00,59.5,58.6,29.99,WNW,293,1.0,-999.0,97,0.00,,,0.01,Wunderground v.1.15,2013-04-01 14:08:00,
2013-04-01 09:13:00,59.5,58.6,29.99,WNW,293,1.0,-999.0,97,0.00,,,0.01,Wunderground v.1.15,2013-04-01 14:13:00,
2013-04-01 09:18:00,62.8,59.2,29.99,WNW,293,1.0,-999.0,88,0.00,,,0.01,Wunderground v.1.15,2013-04-01 14:18:00,
2013-04-01 09:23:00,62.8,59.2,29.99,WNW,293,1.0,-999.0,88,0.00,,,0.01,Wunderground v.1.15,2013-04-01 14:23:00,
2013-04-01 09:28:00,62.8,59.2,29.99,WNW,293,1.0,-999.0,88,0.00,,,0.01,Wunderground v.1.15,2013-04-01 14:28:00,
2013-04-01 09:33:00,62.8,59.2,29.99,WNW,293,1.0,-999.0,88,0.00,,,0.01,Wunderground v.1.15,2013-04-01 14:33:00,
2013-04-01 09:38:00,62.8,59.2,29.99,WNW,293,1.0,-999.0,88,0.00,,,0.01,Wunderground v.1.15,2013-04-01 14:38:00,
2013-04-01 09:43:00,62.8,59.2,29.99,WNW,293,1.0,-999.0,88,0.00,,,0.01,Wunderground v.1.15,2013-04-01 14:43:00,
2013-04-01 09:48:00,65.2,58.2,29.99,NE,45,1.0,-999.0,78,0.00,,,0.01,Wunderground v.1.15,2013-04-01 14:48:00,
2013-04-01 09:53:00,65.2,58.2,29.99,NE,45,1.0,-999.0,78,0.00,,,0.01,Wunderground v.1.15,2013-04-01 14:53:00,
2013-04-01 09:58:00,65.2,58.2,29.99,NE,45,1.0,-999.0,78,0.00,,,0.01,Wunderground v.1.15,2013-04-01 14:58:00,
2013-04-01 10:03:00,65.2,58.2,29.99,NE,45,1.0,-999.0,78,0.00,,,0.01,Wunderground v.1.15,2013-04-01 15:03:00,
2013-04-01 10:08:00,65.2,58.2,29.99,NE,45,1.0,-999.0,78,0.00,,,0.01,Wunderground v.1.15,2013-04-01 15:08:00,
2013-04-01 10:13:00,65.2,58.2,29.99,NE,45,1.0,-999.0,78,0.00,,,0.01,Wunderground v.1.15,2013-04-01 15:13:00,
2013-04-01 10:18:00,65.6,57.1,29.98,NNE,23,2.0,-999.0,74,0.00,,,0.01,Wunderground v.1.15,2013-04-01 15:18:00,
2013-04-01 10:23:00,65.6,57.1,29.98,NNE,23,2.0,-999.0,74,0.00,,,0.01,Wunderground v.1.15,2013-04-01 15:23:00,
2013-04-01 10:28:00,65.6,57.1,29.98,NNE,23,2.0,-999.0,74,0.00,,,0.01,Wunderground v.1.15,2013-04-01 15:28:00,
2013-04-01 10:33:00,65.6,57.1,29.98,NNE,23,2.0,-999.0,74,0.00,,,0.01,Wunderground v.1.15,2013-04-01 15:33:00,
2013-04-01 10:38:00,65.6,57.1,29.98,NNE,23,2.0,-999.0,74,0.00,,,0.01,Wunderground v.1.15,2013-04-01 15:38:00,
2013-04-01 10:43:00,65.6,57.1,29.98,NNE,23,2.0,-999.0,74,0.00,,,0.01,Wunderground v.1.15,2013-04-01 15:43:00,
2013-04-01 10:48:00,69.7,58.3,29.98,NNE,23,2.0,-999.0,67,0.00,,,0.01,Wunderground v.1.15,2013-04-01 15:48:00,
2013-04-01 10:53:00,69.7,58.3,29.98,NNE,23,2.0,-999.0,67,0.00,,,0.01,Wunderground v.1.15,2013-04-01 15:53:00,
2013-04-01 10:58:00,69.7,58.3,29.98,NNE,23,2.0,-999.0,67,0.00,,,0.01,Wunderground v.1.15,2013-04-01 15:58:00,
2013-04-01 11:03:00,69.7,58.3,29.98,NNE,23,2.0,-999.0,67,0.00,,,0.01,Wunderground v.1.15,2013-04-01 16:03:00,
2013-04-01 11:08:00,69.7,58.3,29.98,NNE,23,2.0,-999.0,67,0.00,,,0.01,Wunderground v.1.15,2013-04-01 16:08:00,
2013-04-01 11:13:00,69.7,58.3,29.98,NNE,23,2.0,-999.0,67,0.00,,,0.01,Wunderground v.1.15,2013-04-01 16:13:00,
2013-04-01 11:18:00,70.3,58.0,29.97,NNE,23,2.0,-999.0,65,0.00,,,0.01,Wunderground v.1.15,2013-04-01 16:18:00,
2013-04-01 11:23:00,70.3,58.0,29.97,NNE,23,2.0,-999.0,65,0.00,,,0.01,Wunderground v.1.15,2013-04-01 16:23:00,
2013-04-01 11:28:00,70.3,58.0,29.97,NNE,23,2.0,-999.0,65,0.00,,,0.01,Wunderground v.1.15,2013-04-01 16:28:00,
2013-04-01 11:33:00,70.3,58.0,29.97,NNE,23,2.0,-999.0,65,0.00,,,0.01,Wunderground v.1.15,2013-04-01 16:33:00,
2013-04-01 11:38:00,70.3,58.0,29.97,NNE,23,2.0,-999.0,65,0.00,,,0.01,Wunderground v.1.15,2013-04-01 16:38:00,
2013-04-01 11:43:00,70.3,58.0,29.97,NNE,23,2.0,-999.0,65,0.00,,,0.01,Wunderground v.1.15,2013-04-01 16:43:00,
2013-04-01 11:48:00,71.0,57.3,29.96,NE,45,3.0,-999.0,62,0.00,,,0.01,Wunderground v.1.15,2013-04-01 16:48:00,
2013-04-01 11:53:00,71.0,57.3,29.96,NE,45,3.0,-999.0,62,0.00,,,0.01,Wunderground v.1.15,2013-04-01 16:53:00,
2013-04-01 11:58:00,71.0,57.3,29.96,NE,45,3.0,-999.0,62,0.00,,,0.01,Wunderground v.1.15,2013-04-01 16:58:00,
2013-04-01 12:03:00,71.0,57.3,29.96,NE,45,3.0,-999.0,62,0.00,,,0.01,Wunderground v.1.15,2013-04-01 17:03:00,
2013-04-01 12:08:00,71.0,57.3,29.96,NE,45,3.0,-999.0,62,0.00,,,0.01,Wunderground v.1.15,2013-04-01 17:08:00,
2013-04-01 12:13:00,71.0,57.3,29.96,NE,45,3.0,-999.0,62,0.00,,,0.01,Wunderground v.1.15,2013-04-01 17:13:00,
2013-04-01 12:18:00,72.3,55.2,29.95,NE,45,2.0,-999.0,55,0.00,,,0.01,Wunderground v.1.15,2013-04-01 17:18:00,
2013-04-01 12:23:00,72.3,55.2,29.95,NE,45,2.0,-999.0,55,0.00,,,0.01,Wunderground v.1.15,2013-04-01 17:23:00,
2013-04-01 12:28:00,72.3,55.2,29.95,NE,45,2.0,-999.0,55,0.00,,,0.01,Wunderground v.1.15,2013-04-01 17:28:00,
2013-04-01 12:33:00,72.3,55.2,29.95,NE,45,2.0,-999.0,55,0.00,,,0.01,Wunderground v.1.15,2013-04-01 17:33:00,
2013-04-01 12:38:00,72.3,55.2,29.95,NE,45,2.0,-999.0,55,0.00,,,0.01,Wunderground v.1.15,2013-04-01 17:38:00,
2013-04-01 12:43:00,72.3,55.2,29.95,NE,45,2.0,-999.0,55,0.00,,,0.01,Wunderground v.1.15,2013-04-01 17:43:00,
2013-04-01 12:48:00,72.6,55.5,29.94,NE,45,3.0,-999.0,55,0.00,,,0.01,Wunderground v.1.15,2013-04-01 17:48:00,
2013-04-01 12:53:00,72.6,55.5,29.94,NE,45,3.0,-999.0,55,0.00,,,0.01,Wunderground v.1.15,2013-04-01 17:53:00,
2013-04-01 12:58:00,72.6,55.5,29.94,NE,45,3.0,-999.0,55,0.00,,,0.01,Wunderground v.1.15,2013-04-01 17:58:00,
2013-04-01 13:03:00,72.6,55.5,29.94,NE,45,3.0,-999.0,55,0.00,,,0.01,Wunderground v.1.15,2013-04-01 18:03:00,
2013-04-01 13:08:00,72.6,55.5,29.94,NE,45,3.0,-999.0,55,0.00,,,0.01,Wunderground v.1.15,2013-04-01 18:08:00,
2013-04-01 13:13:00,72.6,55.5,29.94,NE,45,3.0,-999.0,55,0.00,,,0.01,Wunderground v.1.15,2013-04-01 18:13:00,
2013-04-01 13:18:00,73.1,54.4,29.93,NNE,23,2.0,-999.0,52,0.00,,,0.01,Wunderground v.1.15,2013-04-01 18:18:00,
2013-04-01 13:23:00,73.1,54.4,29.93,NNE,23,2.0,-999.0,52,0.00,,,0.01,Wunderground v.1.15,2013-04-01 18:23:00,
2013-04-01 13:28:00,73.1,54.4,29.93,NNE,23,2.0,-999.0,52,0.00,,,0.01,Wunderground v.1.15,2013-04-01 18:28:00,
2013-04-01 13:33:00,73.1,54.4,29.93,NNE,23,2.0,-999.0,52,0.00,,,0.01,Wunderground v.1.15,2013-04-01 18:33:00,
2013-04-01 13:38:00,73.1,54.4,29.93,NNE,23,2.0,-999.0,52,0.00,,,0.01,Wunderground v.1.15,2013-04-01 18:38:00,
2013-04-01 13:43:00,73.1,54.4,29.93,NNE,23,2.0,-999.0,52,0.00,,,0.01,Wunderground v.1.15,2013-04-01 18:43:00,
2013-04-01 13:48:00,73.9,53.0,29.92,NE,45,3.0,-999.0,48,0.00,,,0.01,Wunderground v.1.15,2013-04-01 18:48:00,
2013-04-01 13:53:00,73.9,53.0,29.92,NE,45,3.0,-999.0,48,0.00,,,0.01,Wunderground v.1.15,2013-04-01 18:53:00,
2013-04-01 13:58:00,73.9,53.0,29.92,NE,45,3.0,-999.0,48,0.00,,,0.01,Wunderground v.1.15,2013-04-01 18:58:00,
2013-04-01 14:03:00,73.9,53.0,29.92,NE,45,3.0,-999.0,48,0.00,,,0.01,Wunderground v.1.15,2013-04-01 19:03:00,
2013-04-01 14:08:00,73.9,53.0,29.92,NE,45,3.0,-999.0,48,0.00,,,0.01,Wunderground v.1.15,2013-04-01 19:08:00,
2013-04-01 14:13:00,73.9,53.0,29.92,NE,45,3.0,-999.0,48,0.00,,,0.01,Wunderground v.1.15,2013-04-01 19:13:00,
2013-04-01 14:18:00,74.5,51.2,29.92,NE,45,3.0,-999.0,44,0.00,,,0.01,Wunderground v.1.15,2013-04-01 19:18:00,
2013-04-01 14:23:00,74.5,51.2,29.92,NE,45,3.0,-999.0,44,0.00,,,0.01,Wunderground v.1.15,2013-04-01 19:23:00,
2013-04-01 14:28:00,74.5,51.2,29.92,NE,45,3.0,-999.0,44,0.00,,,0.01,Wunderground v.1.15,2013-04-01 19:28:00,
2013-04-01 15:53:00,74.4,52.3,29.92,North,360,4.0,4.0,46,0.00,,,0.01,Wunderground v.1.15,2013-04-01 20:53:00,
2013-04-01 18:25:00,72.6,51.2,29.90,NE,48,1.0,1.0,47,0.00,,,0.01,Wunderground v.1.15,2013-04-01 23:25:00,
2013-04-01 18:30:00,72.3,50.9,29.90,NE,49,1.0,5.0,47,0.00,,,0.01,Wunderground v.1.15,2013-04-01 23:30:00,
2013-04-01 18:35:00,72.0,52.9,29.90,NE,48,1.0,5.0,51,0.00,,,0.01,Wunderground v.1.15,2013-04-01 23:35:00,
2013-04-01 18:40:00,71.4,52.3,29.90,NE,52,1.0,5.0,51,0.00,,,0.01,Wunderground v.1.15,2013-04-01 23:40:00,
2013-04-01 18:45:00,70.9,51.9,29.90,NE,49,1.0,5.0,51,0.00,,,0.01,Wunderground v.1.15,2013-04-01 23:45:00,
2013-04-01 18:50:00,70.4,52.4,29.90,NE,44,2.0,5.0,53,0.00,,,0.01,Wunderground v.1.15,2013-04-01 23:50:00,
2013-04-01 18:55:00,69.9,52.5,29.90,NE,44,1.0,1.0,54,0.00,,,0.01,Wunderground v.1.15,2013-04-01 23:55:00,
2013-04-01 19:00:00,69.3,52.4,29.90,NE,45,0.0,5.0,55,0.00,,,0.01,Wunderground v.1.15,2013-04-02 00:00:00,
2013-04-01 19:05:00,68.5,53.6,29.90,NE,45,0.0,5.0,59,0.00,,,0.01,Wunderground v.1.15,2013-04-02 00:05:00,
2013-04-01 19:10:00,67.5,54.0,29.90,NE,45,0.0,5.0,62,0.00,,,0.01,Wunderground v.1.15,2013-04-02 00:10:00,
2013-04-01 19:15:00,66.5,53.5,29.90,NE,45,0.0,5.0,63,0.00,,,0.01,Wunderground v.1.15,2013-04-02 00:15:00,
2013-04-01 19:20:00,65.7,54.0,29.90,NE,45,0.0,5.0,66,0.00,,,0.01,Wunderground v.1.15,2013-04-02 00:20:00,
2013-04-01 19:25:00,64.8,53.6,29.91,NE,45,0.0,5.0,67,0.00,,,0.01,Wunderground v.1.15,2013-04-02 00:25:00,
2013-04-01 19:30:00,64.1,52.9,29.91,NE,45,0.0,5.0,67,0.00,,,0.01,Wunderground v.1.15,2013-04-02 00:30:00,
2013-04-01 19:35:00,63.5,53.1,29.91,NE,45,0.0,5.0,69,0.00,,,0.01,Wunderground v.1.15,2013-04-02 00:35:00,
2013-04-01 19:40:00,62.9,52.6,29.91,NE,45,0.0,5.0,69,0.00,,,0.01,Wunderground v.1.15,2013-04-02 00:40:00,
2013-04-01 19:45:00,62.3,52.4,29.91,NE,45,0.0,5.0,70,0.00,,,0.01,Wunderground v.1.15,2013-04-02 00:45:00,
2013-04-01 19:50:00,61.8,52.3,29.91,NE,45,0.0,5.0,71,0.00,,,0.01,Wunderground v.1.15,2013-04-02 00:50:00,
2013-04-01 19:55:00,61.4,51.5,29.91,NE,45,0.0,5.0,70,0.00,,,0.01,Wunderground v.1.15,2013-04-02 00:55:00,
2013-04-01 20:00:00,61.0,51.5,29.91,NE,45,0.0,5.0,71,0.00,,,0.01,Wunderground v.1.15,2013-04-02 01:00:00,
2013-04-01 20:05:00,60.6,50.8,29.91,NE,45,0.0,5.0,70,0.00,,,0.01,Wunderground v.1.15,2013-04-02 01:05:00,
2013-04-01 20:10:00,60.4,50.2,29.91,NE,45,0.0,5.0,69,0.00,,,0.01,Wunderground v.1.15,2013-04-02 01:10:00,
2013-04-01 20:15:00,60.2,50.8,29.91,NE,45,0.0,5.0,71,0.00,,,0.01,Wunderground v.1.15,2013-04-02 01:15:00,
2013-04-01 20:20:00,59.9,50.1,29.91,NE,45,0.0,5.0,70,0.00,,,0.01,Wunderground v.1.15,2013-04-02 01:20:00,
2013-04-01 20:25:00,59.5,50.1,29.92,NE,45,0.0,5.0,71,0.00,,,0.01,Wunderground v.1.15,2013-04-02 01:25:00,
2013-04-01 20:30:00,59.4,50.0,29.92,NE,45,0.0,5.0,71,0.00,,,0.01,Wunderground v.1.15,2013-04-02 01:30:00,
2013-04-01 20:35:00,59.3,50.6,29.92,NE,45,0.0,5.0,73,0.00,,,0.01,Wunderground v.1.15,2013-04-02 01:35:00,
2013-04-01 20:40:00,59.0,51.1,29.92,NE,45,0.0,5.0,75,0.00,,,0.01,Wunderground v.1.15,2013-04-02 01:40:00,
2013-04-01 20:45:00,58.7,51.9,29.92,NE,45,0.0,5.0,78,0.00,,,0.01,Wunderground v.1.15,2013-04-02 01:45:00,
2013-04-01 20:50:00,58.4,51.6,29.92,NE,45,0.0,5.0,78,0.00,,,0.01,Wunderground v.1.15,2013-04-02 01:50:00,
2013-04-01 21:00:00,57.7,50.9,29.92,NE,45,0.0,5.0,78,0.00,,,0.01,Wunderground v.1.15,2013-04-02 02:00:00,
2013-04-01 21:05:00,57.3,50.8,29.92,NE,45,0.0,5.0,79,0.00,,,0.01,Wunderground v.1.15,2013-04-02 02:05:00,
2013-04-01 21:15:00,56.5,51.4,29.93,NE,45,0.0,5.0,83,0.00,,,0.01,Wunderground v.1.15,2013-04-02 02:15:00,
2013-04-01 21:20:00,56.1,51.3,29.93,NE,45,0.0,5.0,84,0.00,,,0.01,Wunderground v.1.15,2013-04-02 02:20:00,
2013-04-01 21:25:00,55.7,51.3,29.93,NE,45,1.0,5.0,85,0.00,,,0.01,Wunderground v.1.15,2013-04-02 02:25:00,
2013-04-01 21:30:00,55.5,51.1,29.93,NE,45,1.0,1.0,85,0.00,,,0.01,Wunderground v.1.15,2013-04-02 02:30:00,
2013-04-01 21:35:00,55.4,50.6,29.93,NE,45,1.0,5.0,84,0.00,,,0.01,Wunderground v.1.15,2013-04-02 02:35:00,
2013-04-01 21:40:00,55.3,50.5,29.93,NE,45,0.0,5.0,84,0.00,,,0.01,Wunderground v.1.15,2013-04-02 02:40:00,
2013-04-01 21:45:00,55.2,50.4,29.93,NE,45,0.0,5.0,84,0.00,,,0.01,Wunderground v.1.15,2013-04-02 02:45:00,
2013-04-01 21:50:00,55.1,50.4,29.93,NE,45,0.0,5.0,84,0.00,,,0.01,Wunderground v.1.15,2013-04-02 02:50:00,
2013-04-01 21:55:00,55.0,50.6,29.94,NE,45,0.0,5.0,85,0.00,,,0.01,Wunderground v.1.15,2013-04-02 02:55:00,
2013-04-01 22:00:00,54.8,50.4,29.94,NE,45,0.0,5.0,85,0.00,,,0.01,Wunderground v.1.15,2013-04-02 03:00:00,
2013-04-01 22:05:00,54.6,50.2,29.94,NE,45,0.0,5.0,85,0.00,,,0.01,Wunderground v.1.15,2013-04-02 03:05:00,
2013-04-01 22:10:00,54.4,50.3,29.94,NE,45,0.0,5.0,86,0.00,,,0.01,Wunderground v.1.15,2013-04-02 03:10:00,
2013-04-01 22:15:00,54.2,50.1,29.94,NE,45,0.0,5.0,86,0.00,,,0.01,Wunderground v.1.15,2013-04-02 03:15:00,
2013-04-01 22:20:00,54.1,50.0,29.94,NE,45,0.0,5.0,86,0.00,,,0.01,Wunderground v.1.15,2013-04-02 03:20:00,
2013-04-01 22:25:00,53.8,49.4,29.95,NE,45,0.0,5.0,85,0.00,,,0.01,Wunderground v.1.15,2013-04-02 03:25:00,
2013-04-01 22:30:00,53.6,49.5,29.95,NE,45,0.0,5.0,86,0.00,,,0.01,Wunderground v.1.15,2013-04-02 03:30:00,
2013-04-01 22:35:00,53.4,49.6,29.95,NE,45,0.0,5.0,87,0.00,,,0.01,Wunderground v.1.15,2013-04-02 03:35:00,
2013-04-01 22:40:00,53.2,49.4,29.95,NE,45,0.0,5.0,87,0.00,,,0.01,Wunderground v.1.15,2013-04-02 03:40:00,
2013-04-01 22:45:00,53.0,49.5,29.95,NE,45,0.0,5.0,88,0.00,,,0.01,Wunderground v.1.15,2013-04-02 03:45:00,
2013-04-01 22:50:00,52.8,49.3,29.95,NE,45,0.0,5.0,88,0.00,,,0.01,Wunderground v.1.15,2013-04-02 03:50:00,
2013-04-01 22:55:00,52.7,49.2,29.95,NE,45,0.0,5.0,88,0.00,,,0.01,Wunderground v.1.15,2013-04-02 03:55:00,
2013-04-01 23:00:00,52.5,49.4,29.95,NE,45,0.0,5.0,89,0.00,,,0.01,Wunderground v.1.15,2013-04-02 04:00:00,
2013-04-01 23:05:00,52.3,49.2,29.95,NE,45,0.0,5.0,89,0.00,,,0.01,Wunderground v.1.15,2013-04-02 04:05:00,
2013-04-01 23:10:00,52.2,49.1,29.96,NE,45,0.0,5.0,89,0.00,,,0.01,Wunderground v.1.15,2013-04-02 04:10:00,
2013-04-01 23:15:00,51.9,48.8,29.96,NE,45,0.0,5.0,89,0.00,,,0.01,Wunderground v.1.15,2013-04-02 04:15:00,
2013-04-01 23:20:00,51.7,48.6,29.96,NE,45,0.0,5.0,89,0.00,,,0.01,Wunderground v.1.15,2013-04-02 04:20:00,
2013-04-01 23:25:00,51.5,48.7,29.96,NE,45,0.0,5.0,90,0.00,,,0.01,Wunderground v.1.15,2013-04-02 04:25:00,
2013-04-01 23:30:00,51.4,48.6,29.96,NE,45,0.0,5.0,90,0.00,,,0.01,Wunderground v.1.15,2013-04-02 04:30:00,
2013-04-01 23:35:00,51.2,48.7,29.96,NE,45,0.0,5.0,91,0.00,,,0.01,Wunderground v.1.15,2013-04-02 04:35:00,
2013-04-01 23:40:00,51.2,48.7,29.96,NE,45,0.0,5.0,91,0.00,,,0.01,Wunderground v.1.15,2013-04-02 04:40:00,
2013-04-01 23:45:00,51.0,48.2,29.96,NE,45,0.0,5.0,90,0.00,,,0.01,Wunderground v.1.15,2013-04-02 04:45:00,
2013-04-01 23:50:00,50.9,48.4,29.96,NE,45,0.0,5.0,91,0.00,,,0.01,Wunderground v.1.15,2013-04-02 04:50:00,
2013-04-01 23:55:00,50.8,48.3,29.96,NE,45,0.0,5.0,91,0.00,,,0.01,Wunderground v.1.15,2013-04-02 04:55:00,